Location: Antioch Baptist Church
(32.6696°N, 85.7327°W)
Time: 08:52:15
(UTC+00:00)

Cosmos-2242 - Pass Details

Date: 04 November 2020
Orbit: 592 x 616 km, 82.5° (Epoch: 03 December)

Event Time Altitude Azimuth Distance (km) Brightness Sun altitude
Rises 23:10:52 0° 154° (SSE) 2,818 6.3 -5.2°
Reaches altitude 10° 23:13:27 10° 139° (SE) 1,924 5.3 -5.8°
Maximum altitude 23:16:42 22° 89° (E) 1,331 4.2 -6.4°
Drops below altitude 10° 23:19:59 10° 39° (NE) 1,944 5.1 -7.1°
Sets 23:22:36 0° 24° (NNE) 2,856 6.1 -7.6°
